This demonstration page uses our WeatherBlox Daily Observations layout. Learn more.

Left ArrowRight Arrow

36.17497, -115.13722

Hourly Observations for March 18, 2019

Temp ( °F °C ) Dew Point ( °F °C ) Humidity (%) Winds ( mph kmh ) Pressure ( in mb ) Visibility ( mi km ) Precip ( " mm )
12:53 am 00:53 Clear 55 12.8 31 -0.6 40 40 Calm 30.07 1018 10 16 0.00 0.00
1:53 am 01:53 Clear 56 13.3 30 -1.1 37 37 W 3 6 30.07 1018 10 16 0.00 0.00
2:53 am 02:53 Clear 55 12.8 30 -1.1 38 38 W 6 9 30.06 1018 10 16 0.00 0.00
3:53 am 03:53 Clear 52 11.1 31 -0.6 45 45 WNW 5 7 30.05 1018 10 16 0.00 0.00
4:53 am 04:53 Clear 53 11.7 30 -1.1 41 41 Calm 30.06 1018 10 16 0.00 0.00
5:53 am 05:53 Clear 50 10 31 -0.6 48 48 NNW 3 6 30.06 1018 10 16 0.00 0.00
6:53 am 06:53 Sunny 50 10 31 -0.6 48 48 WNW 6 9 30.09 1019 10 16 0.00 0.00
7:53 am 07:53 Sunny 54 12.2 30 -1.1 40 40 W 5 7 30.10 1019 10 16 0.00 0.00
8:53 am 08:53 Sunny 61 16.1 29 -1.7 30 30 Calm 30.11 1020 10 16 0.00 0.00
9:53 am 09:53 Sunny 63 17.2 29 -1.7 28 28 Calm 30.11 1020 10 16 0.00 0.00
10:53 am 10:53 Sunny 65 18.3 29 -1.7 26 26 SSE 3 6 30.11 1020 10 16 0.00 0.00
11:53 am 11:53 Sunny 69 20.6 26 -3.3 20 20 E 7 11 30.09 1019 10 16 0.00 0.00
12:53 pm 12:53 Sunny 72 22.2 25 -3.9 17 17 ENE 8 13 30.07 1018 10 16 0.00 0.00
1:53 pm 13:53 Sunny 74 23.3 23 -5 15 15 E 7 11 30.03 1017 10 16 0.00 0.00
2:53 pm 14:53 Sunny 74 23.3 24 -4.4 15 15 VRB 6 9 30.00 1016 10 16 0.00 0.00
3:53 pm 15:53 Sunny 75 23.9 24 -4.4 15 15 Calm 29.99 1016 10 16 0.00 0.00
4:53 pm 16:53 Sunny 75 23.9 24 -4.4 15 15 SE 8 13 29.98 1015 10 16 0.00 0.00
5:53 pm 17:53 Sunny 75 23.9 25 -3.9 15 15 ESE 3 6 29.98 1015 10 16 0.00 0.00
6:53 pm 18:53 Clear 72 22.2 25 -3.9 17 17 E 5 7 29.99 1016 10 16 0.00 0.00
7:53 pm 19:53 Clear 69 20.6 26 -3.3 20 20 E 7 11 30.00 1016 10 16 0.00 0.00
8:53 pm 20:53 Clear 68 20 28 -2.2 22 22 ENE 6 9 30.01 1016 10 16 0.00 0.00
9:53 pm 21:53 Clear 64 17.8 30 -1.1 28 28 NNW 3 6 30.03 1017 10 16 0.00 0.00
10:53 pm 22:53 Clear 60 15.6 32 0 35 35 N 5 7 30.04 1017 10 16 0.00 0.00
11:53 pm 23:53 Clear 59 15 33 0.6 38 38 N 6 9 30.04 1017 10 16 0.00 0.00

Powered by AerisWeather